QFA598 YSSY-YBCG

Flight info

Callsign QFA598
Flight time 1h 0m
Altitude 37000
Route TESAT H252 OLSEM Y193 BANDA Y43 GREAV DCT GOMOL
Aircraft B738/M-SDE2E3FGHIRWXY/LB1

Departure

Time 2026-05-08 06:39
Airport Sydney Kingsford Smith International Airport (YSSY)

Arrival

Time 2026-05-08 07:39
Airport Gold Coast Airport (YBCG)
Time Latitude Longitude Altitude Speed Heading
2026-05-08 06:16 -33.93098 151.17625 28 ft 0 kts 168°
2026-05-08 06:26 -33.93095 151.17625 28 ft 2 kts 168°
2026-05-08 06:27 -33.93080 151.17621 28 ft 2 kts 167°
2026-05-08 06:27 -33.93065 151.17618 28 ft 2 kts 168°
2026-05-08 06:27 -33.93050 151.17613 28 ft 2 kts 167°
2026-05-08 06:27 -33.93035 151.17615 28 ft 2 kts 203°
2026-05-08 06:28 -33.93023 151.17625 28 ft 2 kts 232°
2026-05-08 06:28 -33.93016 151.17641 28 ft 2 kts 261°
2026-05-08 06:28 -33.93016 151.17653 28 ft 0 kts 279°
2026-05-08 06:28 -33.93018 151.17660 28 ft 0 kts 282°
2026-05-08 06:30 -33.93016 151.17650 27 ft 2 kts 281°
2026-05-08 06:30 -33.93012 151.17630 28 ft 2 kts 281°
2026-05-08 06:31 -33.93009 151.17609 28 ft 2 kts 280°
2026-05-08 06:31 -33.93007 151.17583 28 ft 4 kts 260°
2026-05-08 06:31 -33.93054 151.17535 28 ft 14 kts 204°
2026-05-08 06:31 -33.93154 151.17532 28 ft 14 kts 168°
2026-05-08 06:32 -33.93273 151.17564 28 ft 17 kts 168°
2026-05-08 06:32 -33.93389 151.17593 28 ft 16 kts 170°
2026-05-08 06:32 -33.93497 151.17589 28 ft 15 kts 167°
2026-05-08 06:32 -33.93629 151.17627 28 ft 22 kts 158°
2026-05-08 06:33 -33.93767 151.17693 28 ft 20 kts 168°
2026-05-08 06:33 -33.93838 151.17789 27 ft 18 kts 75°
2026-05-08 06:33 -33.93803 151.17934 28 ft 17 kts 74°
2026-05-08 06:33 -33.93771 151.18068 28 ft 16 kts 74°
2026-05-08 06:34 -33.93742 151.18196 28 ft 15 kts 73°
2026-05-08 06:34 -33.93710 151.18332 28 ft 16 kts 75°
2026-05-08 06:34 -33.93679 151.18465 28 ft 15 kts 73°
2026-05-08 06:34 -33.93644 151.18610 28 ft 20 kts 74°
2026-05-08 06:35 -33.93616 151.18779 28 ft 19 kts 112°
2026-05-08 06:35 -33.93686 151.18819 28 ft 0 kts 165°
2026-05-08 06:37 -33.93687 151.18820 28 ft 0 kts 165°
2026-05-08 06:37 -33.93718 151.18829 28 ft 10 kts 165°
2026-05-08 06:37 -33.93798 151.18802 28 ft 14 kts 252°
2026-05-08 06:37 -33.93804 151.18777 28 ft 0 kts 254°
2026-05-08 06:38 -33.93807 151.18767 28 ft 5 kts 254°
2026-05-08 06:38 -33.93877 151.18465 28 ft 73 kts 254°
2026-05-08 06:38 -33.94079 151.17610 28 ft 136 kts 255°
2026-05-08 06:38 -33.94362 151.16412 489 ft 151 kts 253°
2026-05-08 06:39 -33.94651 151.15193 1130 ft 159 kts 253°
2026-05-08 06:39 -33.94937 151.13882 1745 ft 167 kts 255°
2026-05-08 06:39 -33.94855 151.12437 2157 ft 190 kts 289°
2026-05-08 06:39 -33.93919 151.11153 2498 ft 218 kts 313°
2026-05-08 06:40 -33.92730 151.09938 2912 ft 235 kts 313°
2026-05-08 06:40 -33.91464 151.08612 3384 ft 249 kts 313°
2026-05-08 06:40 -33.90114 151.07172 3860 ft 264 kts 313°
2026-05-08 06:40 -33.88731 151.05673 4503 ft 270 kts 313°
2026-05-08 06:41 -33.87345 151.04149 5212 ft 275 kts 313°
2026-05-08 06:41 -33.85932 151.02573 5854 ft 280 kts 313°
2026-05-08 06:41 -33.84511 151.00961 6554 ft 284 kts 314°
2026-05-08 06:41 -33.82810 150.99696 7280 ft 293 kts 340°
2026-05-08 06:42 -33.80758 150.99528 7962 ft 302 kts
2026-05-08 06:42 -33.78801 151.00494 8607 ft 309 kts 36°
2026-05-08 06:42 -33.77255 151.02289 9239 ft 314 kts 56°
2026-05-08 06:42 -33.76242 151.04605 9872 ft 315 kts 75°
2026-05-08 06:43 -33.75664 151.07169 10499 ft 321 kts 81°
2026-05-08 06:43 -33.75190 151.09857 10870 ft 338 kts 82°
2026-05-08 06:43 -33.74697 151.12666 11299 ft 353 kts 82°
2026-05-08 06:43 -33.74145 151.15611 11661 ft 370 kts 81°
2026-05-08 06:44 -33.73541 151.18655 12077 ft 385 kts 80°
2026-05-08 06:44 -33.72881 151.21878 12526 ft 399 kts 79°
2026-05-08 06:44 -33.72211 151.25093 13236 ft 403 kts 79°
2026-05-08 06:44 -33.71522 151.28371 13906 ft 409 kts 79°
2026-05-08 06:45 -33.70826 151.31683 14671 ft 412 kts 79°
2026-05-08 06:45 -33.70119 151.35051 15410 ft 417 kts 79°
2026-05-08 06:45 -33.69418 151.38393 16167 ft 420 kts 79°
2026-05-08 06:45 -33.68702 151.41806 16844 ft 425 kts 79°
2026-05-08 06:46 -33.67979 151.45261 17489 ft 431 kts 79°
2026-05-08 06:46 -33.67247 151.48752 18211 ft 434 kts 79°
2026-05-08 06:46 -33.66499 151.52310 18856 ft 439 kts 79°
2026-05-08 06:46 -33.65686 151.55855 19492 ft 445 kts 75°
2026-05-08 06:47 -33.64494 151.59309 20101 ft 453 kts 65°
2026-05-08 06:47 -33.62836 151.62508 20754 ft 458 kts 54°
2026-05-08 06:47 -33.60723 151.65413 21264 ft 465 kts 44°
2026-05-08 06:47 -33.58227 151.67870 21939 ft 466 kts 34°
2026-05-08 06:48 -33.55467 151.69900 22512 ft 468 kts 27°
2026-05-08 06:48 -33.52540 151.71658 23038 ft 471 kts 20°
2026-05-08 06:48 -33.49450 151.72913 23579 ft 471 kts 11°
2026-05-08 06:48 -33.46265 151.73811 24219 ft 472 kts
2026-05-08 06:49 -33.43034 151.74736 24697 ft 477 kts
2026-05-08 06:49 -33.39805 151.75707 25298 ft 479 kts 11°
2026-05-08 06:49 -33.36560 151.76714 25787 ft 483 kts 11°
2026-05-08 06:49 -33.33319 151.77740 26355 ft 485 kts 11°
2026-05-08 06:50 -33.30054 151.78787 26840 ft 488 kts 11°
2026-05-08 06:50 -33.26790 151.79839 27307 ft 492 kts 11°
2026-05-08 06:50 -33.23451 151.80919 27856 ft 493 kts 11°
2026-05-08 06:50 -33.20137 151.81988 28303 ft 497 kts 11°
2026-05-08 06:51 -33.16760 151.83078 28661 ft 502 kts 11°
2026-05-08 06:51 -33.13363 151.84174 29159 ft 504 kts 11°
2026-05-08 06:51 -33.10077 151.85234 29759 ft 503 kts 11°
2026-05-08 06:51 -33.06694 151.86325 30468 ft 499 kts 10°
2026-05-08 06:52 -33.03357 151.87402 31134 ft 493 kts 10°
2026-05-08 06:52 -33.00067 151.88464 31823 ft 487 kts 10°
2026-05-08 06:52 -32.96798 151.89517 32370 ft 484 kts 10°
2026-05-08 06:52 -32.93543 151.90562 32826 ft 483 kts 10°
2026-05-08 06:53 -32.90281 151.91609 33370 ft 480 kts 10°
2026-05-08 06:53 -32.87317 151.92558 33854 ft 477 kts 10°
2026-05-08 06:53 -32.84568 151.93437 34226 ft 475 kts 10°
2026-05-08 06:53 -32.80447 151.94754 34725 ft 473 kts
2026-05-08 06:54 -32.77278 151.95764 35121 ft 472 kts
2026-05-08 06:54 -32.74117 151.96771 35492 ft 470 kts
2026-05-08 06:54 -32.70926 151.97789 35810 ft 470 kts
2026-05-08 06:54 -32.67781 151.98789 36238 ft 467 kts
2026-05-08 06:55 -32.64622 151.99793 36488 ft 469 kts
2026-05-08 06:55 -32.61448 152.00798 36694 ft 471 kts
2026-05-08 06:55 -32.58254 152.01811 37015 ft 470 kts
2026-05-08 06:55 -32.55074 152.02818 37065 ft 472 kts
2026-05-08 06:56 -32.48772 152.04822 37083 ft 463 kts
2026-05-08 06:56 -32.42506 152.06804 37080 ft 467 kts
2026-05-08 06:57 -32.36248 152.08784 37084 ft 465 kts
2026-05-08 06:57 -32.29968 152.10768 37082 ft 464 kts
2026-05-08 06:58 -32.23693 152.12746 37089 ft 465 kts
2026-05-08 06:58 -32.17461 152.14705 37089 ft 462 kts
2026-05-08 06:59 -32.11219 152.16666 37093 ft 462 kts
2026-05-08 06:59 -32.05004 152.18616 37091 ft 462 kts
2026-05-08 07:00 -31.98752 152.20573 37099 ft 466 kts
2026-05-08 07:00 -31.92490 152.22536 37104 ft 460 kts
2026-05-08 07:01 -31.86545 152.24396 37104 ft 461 kts
2026-05-08 07:01 -31.80343 152.26329 37105 ft 462 kts
2026-05-08 07:02 -31.74135 152.28268 37107 ft 457 kts
2026-05-08 07:02 -31.67930 152.30202 37104 ft 458 kts
2026-05-08 07:03 -31.61733 152.32129 37091 ft 457 kts
2026-05-08 07:03 -31.55539 152.34053 37103 ft 456 kts
2026-05-08 07:04 -31.49362 152.35968 37086 ft 456 kts
2026-05-08 07:04 -31.43222 152.37865 37099 ft 459 kts
2026-05-08 07:05 -31.37011 152.39786 37256 ft 458 kts
2026-05-08 07:05 -31.33947 152.40730 37139 ft 456 kts
2026-05-08 07:05 -31.30902 152.41676 37112 ft 450 kts
2026-05-08 07:06 -31.24770 152.43564 37113 ft 455 kts
2026-05-08 07:06 -31.18627 152.45451 37110 ft 455 kts
2026-05-08 07:07 -31.12514 152.47328 37107 ft 453 kts
2026-05-08 07:07 -31.06401 152.49214 37106 ft 452 kts
2026-05-08 07:08 -31.00298 152.51088 37112 ft 453 kts
2026-05-08 07:08 -30.94187 152.52956 37099 ft 453 kts
2026-05-08 07:09 -30.88094 152.54825 37119 ft 448 kts
2026-05-08 07:09 -30.82060 152.56668 37102 ft 450 kts
2026-05-08 07:10 -30.75990 152.58885 37088 ft 462 kts 11°
2026-05-08 07:10 -30.70016 152.61656 37095 ft 465 kts 12°
2026-05-08 07:11 -30.64026 152.64543 37099 ft 462 kts 12°
2026-05-08 07:11 -30.58050 152.67395 37100 ft 460 kts 11°
2026-05-08 07:12 -30.52144 152.70167 37097 ft 459 kts 11°
2026-05-08 07:12 -30.46182 152.72934 37094 ft 459 kts 10°
2026-05-08 07:13 -30.40199 152.75688 37098 ft 461 kts 10°
2026-05-08 07:13 -30.34244 152.78433 37094 ft 459 kts 10°
2026-05-08 07:14 -30.28338 152.81151 37101 ft 456 kts 10°
2026-05-08 07:14 -30.22399 152.83873 37101 ft 458 kts 10°
2026-05-08 07:15 -30.16470 152.86591 37098 ft 457 kts 10°
2026-05-08 07:15 -30.10564 152.89298 37092 ft 457 kts 10°
2026-05-08 07:16 -30.04603 152.92015 37096 ft 456 kts
2026-05-08 07:16 -29.98689 152.94719 37003 ft 456 kts
2026-05-08 07:17 -29.95720 152.96078 36631 ft 451 kts
2026-05-08 07:17 -29.92812 152.97412 36090 ft 448 kts
2026-05-08 07:17 -29.89954 152.98718 35446 ft 447 kts
2026-05-08 07:17 -29.87281 152.99934 34824 ft 448 kts
2026-05-08 07:18 -29.84587 153.01158 34163 ft 448 kts
2026-05-08 07:18 -29.81762 153.02438 33456 ft 450 kts 10°
2026-05-08 07:18 -29.78835 153.03763 32748 ft 451 kts 11°
2026-05-08 07:18 -29.75919 153.05081 31992 ft 454 kts 11°
2026-05-08 07:19 -29.72945 153.06426 31202 ft 457 kts 12°
2026-05-08 07:19 -29.69991 153.07764 30590 ft 456 kts 13°
2026-05-08 07:19 -29.67046 153.09100 29989 ft 454 kts 13°
2026-05-08 07:19 -29.64120 153.10431 29332 ft 452 kts 13°
2026-05-08 07:20 -29.61169 153.11772 28675 ft 450 kts 13°
2026-05-08 07:20 -29.58289 153.13080 28051 ft 448 kts 14°
2026-05-08 07:20 -29.55385 153.14397 27586 ft 441 kts 14°
2026-05-08 07:20 -29.52518 153.15701 27020 ft 437 kts 14°
2026-05-08 07:21 -29.49694 153.16977 26257 ft 439 kts 14°
2026-05-08 07:21 -29.46823 153.18271 25582 ft 438 kts 15°
2026-05-08 07:21 -29.44003 153.19542 24954 ft 436 kts 15°
2026-05-08 07:21 -29.41203 153.20802 24341 ft 433 kts 15°
2026-05-08 07:22 -29.38371 153.22078 23718 ft 431 kts 16°
2026-05-08 07:22 -29.35566 153.23341 23105 ft 429 kts 16°
2026-05-08 07:22 -29.32777 153.24597 22476 ft 427 kts 16°
2026-05-08 07:22 -29.30044 153.25827 21874 ft 425 kts 16°
2026-05-08 07:23 -29.27290 153.27065 21265 ft 422 kts 17°
2026-05-08 07:23 -29.24529 153.28307 20657 ft 420 kts 17°
2026-05-08 07:23 -29.21819 153.29523 20061 ft 417 kts 17°
2026-05-08 07:23 -29.19111 153.30737 19451 ft 415 kts 17°
2026-05-08 07:24 -29.16412 153.31947 18846 ft 412 kts 17°
2026-05-08 07:24 -29.13744 153.33145 18253 ft 410 kts 18°
2026-05-08 07:24 -29.11059 153.34349 17654 ft 407 kts 18°
2026-05-08 07:24 -29.08427 153.35527 17064 ft 404 kts 18°
2026-05-08 07:25 -29.05833 153.36688 16483 ft 402 kts 18°
2026-05-08 07:25 -29.03203 153.37865 15878 ft 399 kts 18°
2026-05-08 07:25 -28.98158 153.40124 14734 ft 379 kts 18°
2026-05-08 07:26 -28.95727 153.41213 14189 ft 370 kts 18°
2026-05-08 07:26 -28.93341 153.42279 13636 ft 368 kts 19°
2026-05-08 07:26 -28.90946 153.43346 13186 ft 364 kts 19°
2026-05-08 07:26 -28.88601 153.44391 13109 ft 359 kts 19°
2026-05-08 07:27 -28.86250 153.45438 13073 ft 360 kts 19°
2026-05-08 07:27 -28.83941 153.46464 12730 ft 357 kts 19°
2026-05-08 07:27 -28.81649 153.47484 12077 ft 357 kts 19°
2026-05-08 07:27 -28.79326 153.48520 11542 ft 352 kts 19°
2026-05-08 07:28 -28.77099 153.49515 11255 ft 337 kts 19°
2026-05-08 07:28 -28.74952 153.50472 11010 ft 322 kts 19°
2026-05-08 07:28 -28.72897 153.51387 10752 ft 310 kts 19°
2026-05-08 07:28 -28.70913 153.52267 10515 ft 298 kts 19°
2026-05-08 07:29 -28.68968 153.53130 10012 ft 298 kts 19°
2026-05-08 07:29 -28.67054 153.53976 9548 ft 295 kts 19°
2026-05-08 07:29 -28.65116 153.54835 9049 ft 294 kts 19°
2026-05-08 07:29 -28.63223 153.55675 8599 ft 292 kts 19°
2026-05-08 07:30 -28.61335 153.56511 8165 ft 289 kts 20°
2026-05-08 07:30 -28.59458 153.57342 7674 ft 288 kts 20°
2026-05-08 07:30 -28.57587 153.58171 7237 ft 286 kts 20°
2026-05-08 07:30 -28.55736 153.58990 6748 ft 285 kts 20°
2026-05-08 07:31 -28.53899 153.59804 6345 ft 282 kts 20°
2026-05-08 07:31 -28.52068 153.60603 6001 ft 281 kts 19°
2026-05-08 07:31 -28.50223 153.61331 5665 ft 279 kts 17°
2026-05-08 07:31 -28.48379 153.62010 5329 ft 277 kts 17°
2026-05-08 07:32 -28.46564 153.62674 5001 ft 275 kts 17°
2026-05-08 07:32 -28.44747 153.63348 4755 ft 269 kts 17°
2026-05-08 07:32 -28.42998 153.64008 4674 ft 257 kts 17°
2026-05-08 07:32 -28.41336 153.64633 4600 ft 243 kts 16°
2026-05-08 07:33 -28.39742 153.65024 4525 ft 231 kts
2026-05-08 07:33 -28.38186 153.64671 4306 ft 227 kts 332°
2026-05-08 07:33 -28.36844 153.63760 4034 ft 222 kts 324°
2026-05-08 07:33 -28.35560 153.62826 3789 ft 216 kts 326°
2026-05-08 07:34 -28.34274 153.61961 3551 ft 210 kts 328°
2026-05-08 07:34 -28.33033 153.61162 3386 ft 201 kts 329°
2026-05-08 07:34 -28.31846 153.60399 3239 ft 192 kts 328°
2026-05-08 07:34 -28.30682 153.59654 3031 ft 190 kts 329°
2026-05-08 07:35 -28.29528 153.58916 2727 ft 191 kts 330°
2026-05-08 07:35 -28.28377 153.58182 2465 ft 189 kts 330°
2026-05-08 07:35 -28.27231 153.57449 2212 ft 183 kts 331°
2026-05-08 07:35 -28.26157 153.56763 1979 ft 170 kts 332°
2026-05-08 07:36 -28.25164 153.56128 1770 ft 155 kts 332°
2026-05-08 07:36 -28.24242 153.55543 1596 ft 149 kts 332°
2026-05-08 07:36 -28.23332 153.54965 1367 ft 150 kts 332°
2026-05-08 07:36 -28.22424 153.54390 1103 ft 149 kts 333°
2026-05-08 07:37 -28.21518 153.53821 899 ft 147 kts 332°
2026-05-08 07:37 -28.20631 153.53236 758 ft 148 kts 331°
2026-05-08 07:37 -28.19723 153.52644 619 ft 147 kts 332°
2026-05-08 07:37 -28.18840 153.52092 430 ft 147 kts 332°
2026-05-08 07:38 -28.17937 153.51521 217 ft 147 kts 332°
2026-05-08 07:38 -28.17049 153.50957 32 ft 142 kts 332°
2026-05-08 07:38 -28.16325 153.50501 27 ft 75 kts 330°
2026-05-08 07:38 -28.15987 153.50284 25 ft 55 kts 332°
2026-05-08 07:39 -28.15714 153.50111 28 ft 21 kts 333°
2026-05-08 07:39 -28.15611 153.50176 28 ft 20 kts 65°
2026-05-08 07:39 -28.15666 153.50296 26 ft 21 kts 151°
2026-05-08 07:39 -28.15818 153.50392 24 ft 28 kts 150°
2026-05-08 07:40 -28.15986 153.50497 24 ft 21 kts 150°
2026-05-08 07:40 -28.16116 153.50580 25 ft 21 kts 151°
2026-05-08 07:40 -28.16242 153.50661 25 ft 20 kts 150°
2026-05-08 07:40 -28.16368 153.50740 24 ft 20 kts 151°
2026-05-08 07:41 -28.16489 153.50824 23 ft 18 kts 121°
2026-05-08 07:41 -28.16519 153.50943 23 ft 16 kts 149°
2026-05-08 07:41 -28.16620 153.51010 22 ft 15 kts 133°
2026-05-08 07:41 -28.16588 153.51096 23 ft 4 kts 47°
2026-05-08 07:42 -28.16576 153.51111 23 ft 2 kts 47°
2026-05-08 07:42 -28.16569 153.51119 23 ft 0 kts 47°